Weather History for Phuket, Thailand

Change the Weather History Date:

Tuesday, April 2, 2013

  Actual Average Record
Temperature  
Mean Temperature 86 °F -  
Max Temperature 95 °F 91 °F 104 °F (1998)
Min Temperature 77 °F 77 °F 71 °F (2014)
Cooling Degree Days 21    
Growing Degree Days 36 (Base 50)    
Moisture  
Dew Point 76 °F    
Average Humidity 74    
Maximum Humidity 94    
Minimum Humidity 44    
Precipitation  
Precipitation 0.00 in 0.22 in - ()
Sea Level Pressure  
Sea Level Pressure 29.79 in    
Wind  
Wind Speed 3 mph ()    
Max Wind Speed 16 mph    
Max Gust Speed -    
Visibility 5.7 miles    
Events      
Averages and records for this station are not official NWS values.
T = Trace of Precipitation, MM = Missing Value Source: Averaged Metar Reports

Daily Weather History Graph

Daily Weather History Graph

Search for Another Location

Airport:

Trip Planner

Search our weather history database for the weather conditions in past years. The results will help you decide how hot, cold, wet, or windy it might be!

Date:

Astronomy

Apr. 02, 2013 Rise Set
Actual Time 6:24 AM ICT 6:36 PM ICT
Civil Twilight 6:03 AM ICT 6:57 PM ICT
Nautical Twilight 5:38 AM ICT 7:21 PM ICT
Astronomical Twilight 5:14 AM ICT 7:46 PM ICT
Moon No Moon Rise 11:28 AM ICT (4/2)
Length of Visible Light 12h 54m
Length of Day
12h 12m
Waning Gibbous, 61% of the Moon is Illuminated
Apr 2
Waning Gibbous
Apr 3
Last Quarter
Apr 10
New
Apr 18
First Quarter
Apr 26
Full

Hourly Weather History & Observations

Time (ICT) Temp. Heat Index Dew Point Humidity Pressure Visibility Wind Dir Wind Speed Gust Speed Precip Events Conditions
12:00 AM 80.6 °F 87.1 °F 77.0 °F 89% 29.83 in 5.0 mi Variable 1.2 mph - N/A   Mostly Cloudy
12:30 AM 78.8 °F - 77.0 °F 94% 29.83 in 5.0 mi Calm Calm - N/A   Mostly Cloudy
1:00 AM 81 °F - 79 °F 91% 29.79 in 6 mi Calm Calm - -   Partly Cloudy
1:00 AM 78.8 °F - 77.0 °F 94% 29.80 in 5.0 mi Calm Calm - N/A   Mostly Cloudy
1:30 AM 78.8 °F - 77.0 °F 94% 29.80 in 5.0 mi Calm Calm - N/A   Mostly Cloudy
2:00 AM 78.8 °F - 77.0 °F 94% 29.80 in 5.0 mi Calm Calm - N/A   Mostly Cloudy
2:30 AM 78.8 °F - 77.0 °F 94% 29.77 in 5.0 mi Variable 1.2 mph - N/A   Mostly Cloudy
3:00 AM 78.8 °F - 77.0 °F 94% 29.77 in 5.0 mi Calm Calm - N/A   Mostly Cloudy
3:30 AM 78.8 °F - 77.0 °F 94% 29.77 in 5.0 mi Calm Calm - N/A   Mostly Cloudy
4:00 AM 78.8 °F - 77.0 °F 94% 29.77 in 5.0 mi Variable 1.2 mph - N/A   Mostly Cloudy
4:30 AM 78.8 °F - 77.0 °F 94% 29.77 in 5.0 mi Calm Calm - N/A   Mostly Cloudy
5:00 AM 78.8 °F - 75.2 °F 89% 29.77 in 5.0 mi Calm Calm - N/A   Mostly Cloudy
5:30 AM 78.8 °F - 77.0 °F 94% 29.80 in 5.0 mi Calm Calm - N/A   Mostly Cloudy
6:00 AM 78.8 °F - 77.0 °F 94% 29.80 in 5.0 mi Calm Calm - N/A   Mostly Cloudy
6:30 AM 78.8 °F - 77.0 °F 94% 29.80 in 5.0 mi Variable 2.3 mph - N/A   Mostly Cloudy
7:00 AM 79 °F - 77 °F 92% 29.78 in 6 mi Calm Calm - -   Scattered Clouds
7:00 AM 80.6 °F 87.1 °F 77.0 °F 89% 29.83 in 5.0 mi ENE 4.6 mph - N/A   Mostly Cloudy
7:30 AM 82.4 °F 90.9 °F 77.0 °F 84% 29.83 in 5.6 mi Variable 2.3 mph - N/A   Mostly Cloudy
8:00 AM 86.0 °F 96.9 °F 77.0 °F 74% 29.83 in 5.6 mi Variable 1.2 mph - N/A   Mostly Cloudy
8:30 AM 87.8 °F 99.7 °F 77.0 °F 70% 29.83 in 6.2 mi East 8.1 mph - N/A   Mostly Cloudy
9:00 AM 87.8 °F 97.6 °F 75.2 °F 66% 29.86 in 6.2 mi East 9.2 mph - N/A   Mostly Cloudy
9:30 AM 89.6 °F 98.2 °F 73.4 °F 59% 29.86 in 6.2 mi East 11.5 mph - N/A   Mostly Cloudy
10:00 AM 89.6 °F 98.2 °F 73.4 °F 59% 29.86 in 6.2 mi East 16.1 mph - N/A   Mostly Cloudy
10:30 AM 89.6 °F 98.2 °F 73.4 °F 59% 29.86 in 6.2 mi East 10.4 mph - N/A   Mostly Cloudy
11:00 AM 91.4 °F 100.1 °F 73.4 °F 55% 29.86 in 6.2 mi East 13.8 mph - N/A   Mostly Cloudy
11:30 AM 93.2 °F 102.4 °F 73.4 °F 52% 29.86 in 6.2 mi East 13.8 mph - N/A   Mostly Cloudy
12:00 PM 93.2 °F 100.5 °F 71.6 °F 49% 29.83 in 6.2 mi East 11.5 mph - N/A   Mostly Cloudy
12:30 PM 93.2 °F 100.5 °F 71.6 °F 49% 29.83 in 6.2 mi East 13.8 mph - N/A   Mostly Cloudy
1:00 PM 94 °F - 74 °F 44% 29.78 in 6 mi ESE 3.5 mph - -   Mist
1:00 PM 93.2 °F 100.5 °F 71.6 °F 49% 29.80 in 6.2 mi East 11.5 mph - N/A   Mostly Cloudy
1:30 PM 95.0 °F 101.3 °F 69.8 °F 44% 29.77 in 6.2 mi East 9.2 mph - N/A   Mostly Cloudy
2:00 PM 95.0 °F 101.3 °F 69.8 °F 44% 29.77 in 6.2 mi ENE 11.5 mph - N/A   Mostly Cloudy
2:30 PM 95.0 °F 101.3 °F 69.8 °F 44% 29.74 in 6.2 mi East 8.1 mph - N/A   Mostly Cloudy
3:00 PM 95.0 °F 109.7 °F 77.0 °F 56% 29.74 in 6.2 mi Variable 4.6 mph - N/A   Mostly Cloudy
3:30 PM 91.4 °F 105.1 °F 77.0 °F 63% 29.74 in 6.2 mi WNW 5.8 mph - N/A   Mostly Cloudy
4:00 PM 89.6 °F 102.2 °F 77.0 °F 66% 29.74 in 6.2 mi West 11.5 mph - N/A   Mostly Cloudy
4:30 PM 89.6 °F 102.2 °F 77.0 °F 66% 29.71 in 6.2 mi WSW 9.2 mph - N/A   Mostly Cloudy
5:00 PM 89.6 °F 102.2 °F 77.0 °F 66% 29.71 in 6.2 mi West 8.1 mph - N/A   Mostly Cloudy
5:30 PM 87.8 °F 99.7 °F 77.0 °F 70% 29.71 in 6.2 mi West 11.5 mph - N/A   Mostly Cloudy
6:00 PM 87.8 °F 99.7 °F 77.0 °F 70% 29.71 in 6.2 mi West 5.8 mph - N/A   Mostly Cloudy
6:30 PM 86.0 °F 96.9 °F 77.0 °F 74% 29.74 in 6.2 mi WNW 4.6 mph - N/A   Mostly Cloudy
7:00 PM 87 °F - 78 °F 69% 29.73 in 6 mi NW 5.8 mph - -   Mist
7:00 PM 86.0 °F 96.9 °F 77.0 °F 74% 29.74 in 6.2 mi WNW 6.9 mph - N/A   Mostly Cloudy
7:30 PM 86.0 °F 96.9 °F 77.0 °F 74% 29.74 in 6.2 mi NNW 5.8 mph - N/A   Mostly Cloudy
8:00 PM 84.2 °F 92.3 °F 75.2 °F 74% 29.77 in 6.2 mi Calm Calm - N/A   Mostly Cloudy
8:30 PM 84.2 °F 92.3 °F 75.2 °F 74% 29.77 in 6.2 mi North 3.5 mph - N/A   Mostly Cloudy
9:00 PM 84.2 °F 92.3 °F 75.2 °F 74% 29.80 in 6.2 mi Variable 2.3 mph - N/A   Mostly Cloudy
9:30 PM 84.2 °F 92.3 °F 75.2 °F 74% 29.80 in 6.2 mi Variable 2.3 mph - N/A   Mostly Cloudy
10:00 PM 84.2 °F 92.3 °F 75.2 °F 74% 29.80 in 6.2 mi Calm Calm - N/A   Mostly Cloudy
10:30 PM 84.2 °F 92.3 °F 75.2 °F 74% 29.80 in 5.0 mi Calm Calm - N/A   Mostly Cloudy
11:00 PM 84.2 °F 92.3 °F 75.2 °F 74% 29.80 in 5.0 mi WNW 5.8 mph - N/A   Mostly Cloudy
11:30 PM 82.4 °F 89.5 °F 75.2 °F 79% 29.80 in 5.0 mi Calm Calm - N/A   Mostly Cloudy